When you browse on this site, cookies collect data to enhance your experience and personalize the content and advertising you see.
Visit our Privacy Policy to learn more. By continuing to use the site, you agree to this use of cookies and data.
  • en France
  • Liste des pays
  • À 7 jours
  • Température de l'eau
  • Carte météo
  • Widgets météo
  • user-avatar
    Se connecter

    Météo par heure à Semendyaevskiy

    Ce jour, 14 Octobre, Lundi

    Heure Température Précipitation Vent Pression Humidité
    00:00 +12°C° 0.1 mm 3 m/s 744 mmHg 93%
    01:00 +12°C° 0.1 mm 3 m/s 744 mmHg 94%
    02:00 +12°C° 0.1 mm 3 m/s 744 mmHg 95%
    03:00 +12°C° 0 mm 2 m/s 744 mmHg 95%
    04:00 +12°C° 0 mm 2 m/s 744 mmHg 95%
    05:00 +12°C° 0 mm 2 m/s 744 mmHg 95%
    06:00 +12°C° 0 mm 2 m/s 745 mmHg 94%
    07:00 +13°C° 0 mm 2 m/s 745 mmHg 92%
    08:00 +13°C° 0 mm 2 m/s 745 mmHg 91%
    09:00 +13°C° 0 mm 3 m/s 745 mmHg 87%
    10:00 +16°C° 0 mm 3 m/s 745 mmHg 83%
    11:00 +17°C° 0 mm 4 m/s 745 mmHg 79%
    12:00 +17°C° 0 mm 5 m/s 744 mmHg 76%
    13:00 +19°C° 0 mm 5 m/s 744 mmHg 74%
    14:00 +19°C° 0 mm 6 m/s 744 mmHg 71%
    15:00 +17°C° 0 mm 6 m/s 743 mmHg 73%
    16:00 +16°C° 0 mm 5 m/s 743 mmHg 74%
    17:00 +16°C° 0 mm 5 m/s 742 mmHg 76%
    18:00 +15°C° 0 mm 6 m/s 742 mmHg 75%
    19:00 +15°C° 0 mm 6 m/s 742 mmHg 73%
    20:00 +14°C° 0 mm 6 m/s 742 mmHg 72%
    21:00 +14°C° 0 mm 6 m/s 742 mmHg 71%
    22:00 +14°C° 0 mm 6 m/s 742 mmHg 71%
    23:00 +13°C° 0 mm 6 m/s 741 mmHg 71%

    Demain, 15 Octobre, Mardi

    Heure Température Précipitation Vent Pression Humidité
    00:00 +13°C° 0 mm 6 m/s 741 mmHg 73%
    01:00 +12°C° 0 mm 5 m/s 741 mmHg 74%
    02:00 +12°C° 0 mm 5 m/s 741 mmHg 76%
    03:00 +12°C° 0 mm 5 m/s 741 mmHg 80%
    04:00 +11°C° 0 mm 4 m/s 741 mmHg 84%
    05:00 +11°C° 0 mm 4 m/s 742 mmHg 89%
    06:00 +11°C° 0 mm 4 m/s 742 mmHg 88%
    07:00 +12°C° 0 mm 4 m/s 743 mmHg 88%
    08:00 +12°C° 0 mm 5 m/s 743 mmHg 88%
    09:00 +13°C° 0 mm 4 m/s 743 mmHg 82%
    10:00 +13°C° 0 mm 4 m/s 744 mmHg 76%
    11:00 +14°C° 0 mm 3 m/s 744 mmHg 70%
    12:00 +14°C° 0 mm 3 m/s 744 mmHg 68%
    13:00 +14°C° 0 mm 3 m/s 744 mmHg 66%
    14:00 +16°C° 0 mm 3 m/s 745 mmHg 64%
    15:00 +15°C° 0 mm 2 m/s 745 mmHg 69%
    16:00 +14°C° 0 mm 2 m/s 745 mmHg 73%
    17:00 +13°C° 0 mm 2 m/s 745 mmHg 77%
    18:00 +12°C° 0 mm 2 m/s 745 mmHg 78%
    19:00 +10°C° 0 mm 2 m/s 746 mmHg 80%
    20:00 +10°C° 0 mm 2 m/s 746 mmHg 81%
    21:00 +10°C° 0 mm 2 m/s 747 mmHg 83%
    22:00 +9°C° 0 mm 2 m/s 747 mmHg 85%
    23:00 +9°C° 0 mm 2 m/s 747 mmHg 88%

    Après-demain, 16 Octobre, Mercredi

    Heure Température Précipitation Vent Pression Humidité
    00:00 +8°C° 0 mm 2 m/s 747 mmHg 89%
    01:00 +8°C° 0 mm 2 m/s 748 mmHg 91%
    02:00 +8°C° 0 mm 2 m/s 748 mmHg 92%
    03:00 +8°C° 0 mm 2 m/s 748 mmHg 93%
    04:00 +7°C° 0 mm 2 m/s 748 mmHg 93%
    05:00 +7°C° 0 mm 2 m/s 748 mmHg 94%
    06:00 +8°C° 0 mm 3 m/s 748 mmHg 92%
    07:00 +8°C° 0 mm 3 m/s 748 mmHg 89%
    08:00 +9°C° 0 mm 3 m/s 748 mmHg 87%
    09:00 +10°C° 0 mm 4 m/s 748 mmHg 83%
    10:00 +11°C° 0 mm 4 m/s 748 mmHg 79%
    11:00 +13°C° 0 mm 4 m/s 748 mmHg 74%
    12:00 +13°C° 0 mm 4 m/s 748 mmHg 73%
    13:00 +14°C° 0 mm 4 m/s 747 mmHg 72%
    14:00 +14°C° 0 mm 4 m/s 747 mmHg 71%
    15:00 +13°C° 0 mm 4 m/s 747 mmHg 75%
    16:00 +12°C° 0 mm 4 m/s 746 mmHg 79%
    17:00 +11°C° 0 mm 4 m/s 746 mmHg 83%
    18:00 +11°C° 0 mm 4 m/s 746 mmHg 83%
    19:00 +11°C° 0 mm 4 m/s 746 mmHg 83%
    20:00 +10°C° 0 mm 5 m/s 746 mmHg 83%
    21:00 +10°C° 0 mm 5 m/s 746 mmHg 83%
    22:00 +9°C° 0 mm 5 m/s 745 mmHg 83%
    23:00 +9°C° 0 mm 5 m/s 745 mmHg 82%

    17 Octobre, Jeudi

    Heure Température Précipitation Vent Pression Humidité
    00:00 +9°C° 0 mm 5 m/s 745 mmHg 83%
    01:00 +9°C° 0 mm 5 m/s 745 mmHg 83%
    02:00 +9°C° 0 mm 5 m/s 744 mmHg 84%
    03:00 +9°C° 0 mm 5 m/s 744 mmHg 86%
    04:00 +9°C° 0 mm 5 m/s 744 mmHg 88%
    05:00 +8°C° 0 mm 5 m/s 744 mmHg 90%
    06:00 +9°C° 0 mm 5 m/s 744 mmHg 88%
    07:00 +10°C° 0 mm 5 m/s 743 mmHg 86%
    08:00 +10°C° 0 mm 5 m/s 743 mmHg 84%
    09:00 +13°C° 0 mm 5 m/s 743 mmHg 78%
    10:00 +14°C° 0 mm 5 m/s 743 mmHg 71%
    11:00 +16°C° 0 mm 5 m/s 743 mmHg 64%
    12:00 +16°C° 0 mm 5 m/s 743 mmHg 63%
    13:00 +16°C° 0 mm 5 m/s 743 mmHg 62%
    14:00 +17°C° 0 mm 5 m/s 742 mmHg 61%
    15:00 +17°C° 0 mm 4 m/s 742 mmHg 66%
    16:00 +16°C° 0 mm 3 m/s 742 mmHg 72%
    17:00 +13°C° 0 mm 3 m/s 742 mmHg 77%
    18:00 +13°C° 0 mm 3 m/s 742 mmHg 79%
    19:00 +13°C° 0 mm 3 m/s 742 mmHg 81%
    20:00 +13°C° 0 mm 3 m/s 743 mmHg 83%
    21:00 +12°C° 0 mm 3 m/s 743 mmHg 86%
    22:00 +12°C° 0 mm 3 m/s 743 mmHg 89%
    23:00 +11°C° 0 mm 3 m/s 742 mmHg 92%

    18 Octobre, Vendredi

    Heure Température Précipitation Vent Pression Humidité
    00:00 +12°C° 0 mm 2 m/s 743 mmHg 93%
    01:00 +12°C° 0 mm 2 m/s 743 mmHg 93%
    02:00 +10°C° 0 mm 2 m/s 743 mmHg 93%
    03:00 +10°C° 0 mm 2 m/s 743 mmHg 92%
    04:00 +10°C° 0 mm 2 m/s 743 mmHg 91%
    05:00 +11°C° 0 mm 1 m/s 743 mmHg 89%
    06:00 +11°C° 0 mm 1 m/s 744 mmHg 87%
    07:00 +12°C° 0 mm 2 m/s 744 mmHg 85%
    08:00 +12°C° 0 mm 2 m/s 745 mmHg 82%
    09:00 +13°C° 0 mm 2 m/s 745 mmHg 78%
    10:00 +14°C° 0 mm 2 m/s 746 mmHg 73%
    11:00 +15°C° 0 mm 2 m/s 746 mmHg 68%
    12:00 +14°C° 0 mm 3 m/s 746 mmHg 68%
    13:00 +14°C° 0 mm 3 m/s 746 mmHg 68%
    14:00 +14°C° 0 mm 3 m/s 747 mmHg 68%
    15:00 +13°C° 0 mm 3 m/s 747 mmHg 72%
    16:00 +12°C° 0 mm 4 m/s 747 mmHg 75%
    17:00 +11°C° 0 mm 4 m/s 747 mmHg 79%
    18:00 +10°C° 0 mm 4 m/s 747 mmHg 78%
    19:00 +10°C° 0 mm 4 m/s 748 mmHg 78%
    20:00 +8°C° 0 mm 4 m/s 748 mmHg 78%
    21:00 +8°C° 0 mm 4 m/s 748 mmHg 77%
    22:00 +8°C° 0 mm 4 m/s 748 mmHg 76%
    23:00 +7°C° 0 mm 5 m/s 748 mmHg 75%

    19 Octobre, Samedi

    Heure Température Précipitation Vent Pression Humidité
    00:00 +7°C° 0.1 mm 4 m/s 748 mmHg 74%
    01:00 +7°C° 0.1 mm 4 m/s 749 mmHg 73%
    02:00 +6°C° 0.1 mm 4 m/s 749 mmHg 73%
    03:00 +6°C° 0.2 mm 4 m/s 749 mmHg 75%
    04:00 +6°C° 0.2 mm 4 m/s 749 mmHg 77%
    05:00 +6°C° 0.2 mm 4 m/s 749 mmHg 80%
    06:00 +6°C° 0.5 mm 4 m/s 749 mmHg 82%
    07:00 +6°C° 0.5 mm 4 m/s 749 mmHg 84%
    08:00 +6°C° 0.5 mm 4 m/s 749 mmHg 86%
    09:00 +6°C° 0.3 mm 4 m/s 749 mmHg 86%
    10:00 +7°C° 0.3 mm 3 m/s 749 mmHg 87%
    11:00 +8°C° 0.3 mm 3 m/s 749 mmHg 87%
    12:00 +8°C° 0 mm 3 m/s 749 mmHg 86%
    13:00 +9°C° 0 mm 3 m/s 749 mmHg 86%
    14:00 +9°C° 0 mm 3 m/s 749 mmHg 85%
    15:00 +9°C° 0 mm 3 m/s 748 mmHg 87%
    16:00 +8°C° 0 mm 2 m/s 748 mmHg 90%
    17:00 +8°C° 0 mm 2 m/s 748 mmHg 92%
    18:00 +8°C° 0 mm 2 m/s 748 mmHg 93%
    19:00 +8°C° 0 mm 2 m/s 748 mmHg 94%
    20:00 +7°C° 0 mm 2 m/s 748 mmHg 94%
    21:00 +8°C° 0 mm 2 m/s 748 mmHg 94%
    22:00 +8°C° 0 mm 2 m/s 748 mmHg 93%
    23:00 +8°C° 0 mm 2 m/s 748 mmHg 93%
    Voir plus